Simultaneous Nadir Overpasses (SNOs) Predictions

Prediction of SNOs between GOES-17 and METOP-C Satellite Orbit:

Table of predicted SNOs for the next 14.0 days since TLE Epoch: 6/16/2022
Index Date Time (GOES-17) GOES-17 Lat,Lon METOP-C Lat,Lon Distance(km) Time Diff (sec)
1 06/16/2022 18:32:41 0.05,-137.19 -0.44,-135.15 233.42 80
2 06/18/2022 06:49:02 -0.04,-137.18 -0.59,-139.75 292.64 80
3 06/19/2022 06:31:02 -0.04,-137.18 0.51,-134.76 275.84 80
4 06/20/2022 18:47:14 0.03,-137.18 0.51,-139.32 244.15 80
5 06/21/2022 18:29:14 0.03,-137.17 -0.59,-134.33 324.34 80
6 06/23/2022 06:45:36 -0.03,-137.16 -0.41,-138.93 201.69 80
7 06/24/2022 06:27:36 -0.03,-137.15 0.69,-133.94 366.48 80
8 06/25/2022 18:43:47 0.03,-137.14 0.33,-138.50 154.49 80
9 06/26/2022 18:25:48 0.03,-137.13 -0.77,-133.50 413.23 80
10 06/28/2022 06:42:08 -0.03,-137.11 -0.27,-138.10 113.91 80
11 06/29/2022 06:21:29 -0.02,-137.09 0.84,-133.11 453.31 80
